Regional Weather Roundup
Issued by NWS Newport/Morehead, NC

Current Version | Previous Version | Graphics & Text | Print | Product List | Glossary Off
Versions: 1 2 3 4 5 6 7 8 9 10 11 12 13 14 15 16 17 18 19 20 21 22 23 24 25 26 27 28 29 30 31 32 33 34 35 36 37 38 39 40 41 42 43 44 45 46 47 48 49 50

000
ASUS42 KMHX 170922
RWRMHX
WEATHER ROUNDUP FOR EASTERN NORTH CAROLINA
NATIONAL WEATHER SERVICE NEWPORT/MOREHEAD CITY NC
500 AM EDT THU APR 17 2014

NOTE: "FAIR" INDICATES FEW OR NO CLOUDS BELOW 12,000 FEET
WITH NO SIGNIFICANT WEATHER AND/OR OBSTRUCTIONS TO VISIBILITY

NCZ015>017-031-032-045>047-102-103-171000-
NORTH COAST

CITY           SKY/WX    TMP DP  RH WIND       PRES   REMARKS
EDENTON        CLEAR     37  33  86 N8        30.48R
ELIZABETH CITY CLEAR     43  34  70 N13       30.47S
KITTY HAWK     MOSUNNY   44  37  75 N8G16     30.43S
MANTEO         PTCLDY    44  37  77 NE20G26   30.44S

$$

NCZ045>047-081-094-103-104-171000-
CENTRAL COAST

CITY           SKY/WX    TMP DP  RH WIND       PRES   REMARKS
FRISCO         MOCLDY    47  42  83 N14G28    30.39S
SWANQUARTER      N/A     43 N/A N/A N9        30.39S

$$

NCZ095-097-098-100-101-171000-
SOUTHERN COAST

CITY           SKY/WX    TMP DP  RH WIND       PRES   REMARKS
BEAUFORT       CLEAR     45  40  82 N12       30.40S
CEDAR ISLAND     N/A     48 N/A N/A VRB23G33  30.44S
JACKSONVILLE   CLEAR     38  33  82 N8        30.44R
NEWPORT          N/A     41  37  87 N7          N/A
PINEY ISLAND   MOSUNNY   49  41  74 N15G23    30.41S
WILMINGTON     CLEAR     40  32  73 NE12      30.42R


$$

NCZ011>013-027>030-043-044-078>080-089-090>093-098-171000-
COASTAL PLAIN

CITY           SKY/WX    TMP DP  RH WIND       PRES   REMARKS
AHOSKIE        CLEAR     33  31  93 N3        30.51S
CLINTON        CLEAR     37  32  79 NE6       30.46S
ELIZABETHTOWN  CLEAR     36  32  87 CALM      30.45R
GOLDSBORO      CLEAR     37  31  79 NE6       30.46R
GREENVILLE     CLEAR     34  32  93 CALM      30.47S
HAVELOCK       NOT AVBL
KENANSVILLE    CLEAR     37  32  81 N7        30.47R
KINSTON        CLEAR     37  32  81 N5        30.47S
NEW BERN       CLEAR     41  33  73 N8        30.45R
RICHLANDS      CLEAR     36  28  75 N5        30.45S
ROANOKE RAPIDS NOT AVBL
ROCKY MOUNT      N/A    N/A N/A N/A MISG      30.49S
WASHINGTON     CLEAR     40  35  83 NE8       30.47R
WHITEVILLE     CLEAR     38  32  79 N7        30.42F

$$

AMZ130-135-150-152-154-156-158-170-250-252-270-ANZ085-086-088-633-658-670-171000-
MARINE OBSERVATIONS

STATION/POSITION TIME  TEMP    WIND        PRES    WAVE   SWELL
                       AIR SEA DIR/SP/G            HT/PER HT/PER
                 (UTC) (F)     (DEG/KT/KT) (MB)    (FT/S) (FT/S)
CHESAPEAKE LIGHT 0900   44      30/ 19/ 20 1033.0
BUOY 44014       0900   49 50   20/ 23/ 27 1030.1    8/ 7   3/ 9
DUCK             0900   45 48   20/ 23/ 27 1030.2
2E DUCK          0900      48                N/A     7/ 7   2/11
OREGON INLET     0900   45 50  360/ 17/ 23 1030.0
BUOY 44095       0900      51                N/A     9/ 7   2/11
HATTERAS CG      0900   49 56   20/ 13/ 23 1029.2
DIAMOND BUOY     NOT AVBL
CAPE LOOKOUT     0900   47      10/ 18/ 24 1029.0
BEAUFORT LAB     0900   46 60   20/ 14/ 17 1028.8
30 SE NEW RIVER  0900   50 63   20/ 19/ 23 1029.0    6/11   3/11
5 SE WRIGHTSVILL 0900   48 60   40/ 23/ 25 1028.6
FRYING PAN BUOY  0900   54 62   50/ 23/ 27 1026.5    7/ 6   3/ 8
BUOY 41001       NOT AVBL
BUOY 41002       NOT AVBL
BUOY 41004       NOT AVBL

$$



USA.gov is the U.S. government's official web portal to all federal, state and local government web resources and services.